BAW246 SAEZ-EGLL

Flight info

Callsign BAW246
Flight time N/A
Altitude 33000
Route KUKEN1A KUKEN UM654 OBKAR/N0489F350 UM654 TEPAV UZ78 USVUR UN866 DEKON/N0482F360 UN866 AMDOL/N0477F370 UN866 TENPA N866 GOMER/N0468F380 N866 KONBA UN866 BEXAL DCT LIGRA DCT NSA/N0478F400 DCT TOSDI N745 ZMR N873 DELOG DCT YURZI UL14 TEPRA UN867 TERPO/N0449F340 UP87 GODAN UN862 UPALO UP87 ROXOG
Aircraft B772/H-SDE2E3FGHIJ5LORVWXY/LB1D1

Departure

Time 2026-05-04 22:34
Airport Ezeiza International Airport - Ministro Pistarini (SAEZ)

Arrival

Time N/A
Airport London Heathrow Airport (EGLL)
Time Latitude Longitude Altitude Speed Heading
2026-05-04 21:48 -34.81558 -58.53927 87 ft 0 kts 320°
2026-05-04 22:20 -34.81567 -58.53918 86 ft 2 kts 320°
2026-05-04 22:20 -34.81579 -58.53906 86 ft 2 kts 320°
2026-05-04 22:20 -34.81590 -58.53895 86 ft 2 kts 320°
2026-05-04 22:20 -34.81601 -58.53883 86 ft 2 kts 320°
2026-05-04 22:21 -34.81613 -58.53871 86 ft 2 kts 320°
2026-05-04 22:21 -34.81624 -58.53859 86 ft 2 kts 320°
2026-05-04 22:21 -34.81636 -58.53848 86 ft 2 kts 320°
2026-05-04 22:21 -34.81647 -58.53836 85 ft 2 kts 320°
2026-05-04 22:22 -34.81659 -58.53824 85 ft 2 kts 320°
2026-05-04 22:22 -34.81670 -58.53813 85 ft 1 kts 320°
2026-05-04 22:22 -34.81678 -58.53805 85 ft 2 kts 315°
2026-05-04 22:22 -34.81686 -58.53791 85 ft 1 kts 291°
2026-05-04 22:23 -34.81689 -58.53816 85 ft 3 kts 238°
2026-05-04 22:23 -34.81707 -58.53852 85 ft 3 kts 242°
2026-05-04 22:23 -34.81710 -58.53860 85 ft 0 kts 242°
2026-05-04 22:28 -34.81723 -58.53887 85 ft 9 kts 241°
2026-05-04 22:28 -34.81765 -58.53978 84 ft 13 kts 243°
2026-05-04 22:29 -34.81796 -58.54083 83 ft 13 kts 266°
2026-05-04 22:29 -34.81785 -58.54192 82 ft 12 kts 279°
2026-05-04 22:29 -34.81772 -58.54299 81 ft 12 kts 278°
2026-05-04 22:29 -34.81759 -58.54409 81 ft 14 kts 277°
2026-05-04 22:30 -34.81757 -58.54546 78 ft 18 kts 263°
2026-05-04 22:30 -34.81778 -58.54703 77 ft 18 kts 265°
2026-05-04 22:30 -34.81764 -58.54854 75 ft 17 kts 284°
2026-05-04 22:30 -34.81738 -58.54995 74 ft 16 kts 282°
2026-05-04 22:31 -34.81714 -58.55128 74 ft 15 kts 283°
2026-05-04 22:31 -34.81696 -58.55254 73 ft 14 kts 270°
2026-05-04 22:31 -34.81732 -58.55331 73 ft 6 kts 215°
2026-05-04 22:31 -34.81742 -58.55338 72 ft 0 kts 207°
2026-05-04 22:32 -34.81749 -58.55342 72 ft 3 kts 203°
2026-05-04 22:32 -34.81811 -58.55337 72 ft 13 kts 154°
2026-05-04 22:32 -34.81885 -58.55308 72 ft 10 kts 170°
2026-05-04 22:32 -34.81923 -58.55249 73 ft 5 kts 103°
2026-05-04 22:33 -34.81924 -58.55248 73 ft 0 kts 103°
2026-05-04 22:33 -34.81935 -58.55188 73 ft 22 kts 102°
2026-05-04 22:33 -34.82019 -58.54713 76 ft 91 kts 102°
2026-05-04 22:33 -34.82200 -58.53703 81 ft 151 kts 102°
2026-05-04 22:34 -34.82465 -58.52239 117 ft 198 kts 101°
2026-05-04 22:34 -34.82753 -58.50625 747 ft 197 kts 104°
2026-05-04 22:34 -34.83390 -58.49163 1397 ft 204 kts 131°
2026-05-04 22:34 -34.84449 -58.47898 1919 ft 220 kts 138°
2026-05-04 22:35 -34.85608 -58.46591 2486 ft 236 kts 128°
2026-05-04 22:35 -34.86542 -58.44880 3101 ft 253 kts 119°
2026-05-04 22:35 -34.87441 -58.42964 3794 ft 268 kts 119°
2026-05-04 22:35 -34.88370 -58.40986 4688 ft 275 kts 120°
2026-05-04 22:36 -34.89336 -58.38944 5480 ft 286 kts 120°
2026-05-04 22:36 -34.90359 -58.36757 5879 ft 313 kts 117°
2026-05-04 22:36 -34.91068 -58.34114 5927 ft 338 kts 101°
2026-05-04 22:36 -34.91491 -58.31326 5932 ft 327 kts 99°
2026-05-04 22:37 -34.91866 -58.28639 5979 ft 325 kts 99°
2026-05-04 22:37 -34.92186 -58.25938 6748 ft 320 kts 89°
2026-05-04 22:37 -34.91814 -58.23353 7604 ft 307 kts 64°
2026-05-04 22:37 -34.90665 -58.21245 8251 ft 298 kts 39°
2026-05-04 22:38 -34.88938 -58.19925 8680 ft 293 kts 13°
2026-05-04 22:38 -34.86944 -58.19486 9153 ft 291 kts
2026-05-04 22:38 -34.84924 -58.19423 9634 ft 292 kts 354°
2026-05-04 22:38 -34.82886 -58.19486 10075 ft 296 kts 353°
2026-05-04 22:39 -34.80772 -58.19563 10250 ft 312 kts 354°
2026-05-04 22:39 -34.78534 -58.19646 10331 ft 329 kts 354°
2026-05-04 22:39 -34.76188 -58.19732 10441 ft 344 kts 354°
2026-05-04 22:39 -34.73735 -58.19821 10698 ft 360 kts 354°
2026-05-04 22:40 -34.72896 -58.19851 10778 ft 365 kts 354°
2026-05-04 22:40 -34.69247 -58.19981 11117 ft 381 kts 354°
2026-05-04 22:40 -34.66587 -58.20073 11620 ft 385 kts 354°
2026-05-04 22:40 -34.63903 -58.20165 12127 ft 387 kts 354°
2026-05-04 22:41 -34.61198 -58.20259 12605 ft 390 kts 353°
2026-05-04 22:41 -34.58464 -58.20353 13129 ft 394 kts 353°
2026-05-04 22:41 -34.55702 -58.20448 13538 ft 398 kts 353°
2026-05-04 22:41 -34.52921 -58.20544 14103 ft 401 kts 353°
2026-05-04 22:42 -34.50118 -58.20640 14564 ft 405 kts 353°
2026-05-04 22:42 -34.47289 -58.20737 15091 ft 408 kts 353°
2026-05-04 22:42 -34.44438 -58.20835 15449 ft 412 kts 353°
2026-05-04 22:42 -34.41560 -58.20933 15996 ft 415 kts 353°
2026-05-04 22:43 -34.38660 -58.21032 16493 ft 419 kts 353°
2026-05-04 22:43 -34.35717 -58.21133 16916 ft 423 kts 353°
2026-05-04 22:43 -34.32747 -58.21235 17362 ft 427 kts 353°
2026-05-04 22:43 -34.29771 -58.21336 17802 ft 430 kts 352°
2026-05-04 22:44 -34.28772 -58.21370 17956 ft 431 kts 352°
2026-05-04 22:44 -34.22914 -58.21510 18872 ft 439 kts 357°
2026-05-04 22:44 -34.19852 -58.21028 19337 ft 448 kts
2026-05-04 22:44 -34.16840 -58.19909 19792 ft 458 kts 17°
2026-05-04 22:45 -34.13967 -58.18160 20218 ft 467 kts 28°
2026-05-04 22:45 -34.08659 -58.13497 21123 ft 474 kts 33°
2026-05-04 22:45 -34.06013 -58.11112 21558 ft 476 kts 33°
2026-05-04 22:46 -34.03344 -58.08726 21881 ft 481 kts 33°
2026-05-04 22:46 -34.00637 -58.06322 21922 ft 485 kts 32°
2026-05-04 22:46 -33.97929 -58.03926 21928 ft 481 kts 32°
2026-05-04 22:46 -33.95237 -58.01553 21928 ft 479 kts 32°
2026-05-04 22:47 -33.92511 -57.99201 22194 ft 484 kts 32°
2026-05-04 22:47 -33.91625 -57.98428 22362 ft 484 kts 32°